• Join FlightAware (Why Join?)
  • Login
  • US Flag GB Flag 
14:50 EDT


 

Airport Tracker/Info


-or-


 

Live Flight TrackerFlight Track Log ✈ EJA122 ✈ 09-Jul-2013 ✈ KBDL - KLEB

Flight Track Log - Related Links

Times and Time Zones

All times are in EDT time to prevent confusion due to time zone crossing. See the EJA122 flight status page for this flight to view local times or setup timezone preferences in your user account.

Time Position Orientation Groundspeed Altitude Reporting Facility
EDT Latitude Longitude Course Direction KTS MPH feet Rate Location/Type
17:57 41.9083 -72.7164 242° Southwest 177 204 3,400  Level Boston Center
17:58 41.9289 -72.7889 291° West 233 268 4,000 1,080 Climbing Boston Center
17:59 41.9850 -72.8533 320° Northwest 269 310 5,600 2,700 Climbing Boston Center
18:00 42.0389 -72.9236 316° Northwest 272 313 9,500 2,160 Climbing Boston Center
18:01 42.1306 -72.9383 353° North 369 425 10,000 240 Climbing Boston Center
18:02 42.2078 -72.9081 16° North 372 428 10,000  Level Boston Center
18:03 42.3100 -72.8669 17° North 378 435 10,000  Level Boston Center
18:04 42.3914 -72.8308 18° North 352 405 10,000  Level Boston Center
18:05 42.4936 -72.7892 17° North 342 394 10,000  Level Boston Center
18:06 42.5772 -72.7531 18° North 342 394 10,000  Level Boston Center
18:07 42.6814 -72.7111 16° North 348 400 10,000  Level Boston Center
18:08 42.7753 -72.6719 17° North 348 400 10,000  Level Boston Center
18:09 42.8692 -72.6328 17° North 343 395 10,000  Level Boston Center
18:10 42.9589 -72.5933 18° North 343 395 10,000  Level Boston Center
18:11 43.0444 -72.5453 22° Northeast 338 389 10,000  Level Boston Center
18:12 43.0964 -72.4686 47° Northeast 332 382 10,000  Level Boston Center
18:13 43.1861 -72.3689 39° Northeast 332 382 10,000 -120 Level Boston Center
18:14 43.2819 -72.3489 North 326 375 9,800 -540 Descending Boston Center
18:15 43.3611 -72.3400 North 300 345 9,000 -1,140 Descending Boston Center
18:16 43.4236 -72.3344 North 259 298 7,600 -1,620 Descending Boston Center
18:17 43.4842 -72.3286 North 232 267 5,800 -1,560 Descending Boston Center
18:18 43.5444 -72.3256 North 220 253 4,500 -1,380 Descending Boston Center
18:19 43.5967 -72.3397 349° North 215 247 3,100 -900 Descending Boston Center
18:20 43.6592 -72.3453 356° North 209 241 2,700 -420 Descending Boston Center